NUSAT-8 (MARIE)

Last updated on Sun Oct 01 2023 01:02:26 GMT+0100 (British Summer Time)

1 45018U 20003C 23272.94443539 .04382537 23389-5 99488-3 0 9993 2 45018 97.1464 343.5480 0009654 262.7130 97.3067 16.30032091208189
UTC large
Height (km)
Speed (km/s)
/
Latitude / Longitude
Inclination (degrees)
Orbital Period (minutes)
Azimuth
Elevation
Range (km)
Doppler Factor

Next 0 passes for location: London (51.5072 / 0.1276)

Sorry there are no passes over London.